sat.trackr.live / text

‹ back to catalog

STARLINK-31187

NORAD 58790 · 2024-012D

PAYLOAD ACTIVE UNKNOWN

§ Identity

Operator
Country
US
Launch date
2024-01-15
Launch site
AFETR
Launch vehicle
Mass (kg)
RCS (m²)

Purposes: comms

External: N2YO · Heavens-Above · Gunter

§ Orbital elements

Epoch: 2026-05-25T03:19:34.894848Z

Period
94.26 min
Inclination
43.0012°
Eccentricity
0.0000918
Mean motion
15.27616857 rev/d
Perigee alt
482.3 km
Apogee alt
483.6 km
Semi-major
6,861.1 km
B*
9.5157e-6
RAAN
93.8692°
Arg perigee
267.6042°
Mean anomaly
92.4705°
Rev number
13,292

§ Raw data

STARLINK-311871 58790U 24012D   26145.13859832  .00000000  00000+0  95157-5 0  99962 58790  43.0012  93.8692 0000918 267.6042  92.4705 15.27616857132925

JSON: /api/v1/satellites/58790 · /tle

For live sub-satellite position, see the globe view (requires WebGL).

§ Visibility from observer

Set your observer location to see the next 7 days of passes ≥ 10°. The values pass through the URL so the page stays shareable.

No JS? Fill the form by hand. The geolocation button needs JavaScript.